EW0860 Weather Reports


Display with metric or nautical units.
time (UTC)temp
F
wind
direction
speed
MPH
gust
MPH
rain 1hr
in
rain 24hr
in
rain mn
in
humidity
%
barometer
mb
20260906084518 74 87 0.0 0.0 0.00 0.00 0.00 91 1009.1
20260906083020 74 87 0.0 0.0 0.00 0.00 0.00 91 1009.1
20260906081516 74 87 0.0 0.0 0.00 0.00 0.00 91 1009.0
20260906080025 75 87 0.0 0.0 0.00 0.00 0.00 90 1008.9
20260906074515 75 87 0.0 0.0 0.00 0.00 0.00 90 1008.9
20260906073013 75 87 0.0 0.0 0.00 0.00 0.00 90 1008.9
20260906071511 75 87 0.0 0.0 0.00 0.00 0.00 89 1009.0
20260906070010 75 87 0.0 0.0 0.00 0.00 0.00 89 1009.2
20260906064508 76 87 0.0 0.0 0.00 0.00 0.00 89 1009.2
20260906063007 76 87 0.0 0.0 0.00 0.00 0.00 88 1009.3
20260906061506 76 87 0.0 0.0 0.00 0.00 0.00 88 1009.4
20260906060004 76 87 0.0 2.0 0.00 0.00 0.00 88 1009.5
20260906054501 77 87 0.0 0.0 0.00 0.00 0.00 87 1009.4
20260906053109 77 87 0.0 0.0 0.00 0.00 0.00 87 1009.4
20260906051602 77 87 0.0 0.0 0.00 0.00 0.00 86 1009.3
20260906050059 77 87 0.0 0.0 0.00 0.00 0.00 86 1009.4
20260906044558 78 87 0.0 0.0 0.00 0.00 0.00 86 1009.3
20260906043102 78 87 0.0 0.0 0.00 0.00 0.00 85 1009.2
20260906041601 78 87 0.0 0.0 0.00 0.00 0.00 85 1009.2
20260906040057 79 87 0.0 0.0 0.00 0.00 0.00 85 1009.1
20260906034556 79 87 0.0 0.0 0.00 0.00 0.00 84 1008.9
20260906033109 80 87 0.0 0.0 0.00 0.00 0.00 84 1008.8
20260906031556 80 87 0.0 0.0 0.00 0.00 0.00 83 1008.7
20260906030056 81 87 0.0 0.0 0.00 0.00 0.00 83 1008.5
20260906024557 81 87 0.0 0.0 0.00 0.00 0.00 83 1008.3
20260906023056 82 87 0.0 0.0 0.00 0.00 0.00 82 1008.2
20260906021558 83 87 0.0 0.0 0.00 0.00 0.00 80 1008.0
20260906020105 84 87 0.0 0.0 0.00 0.00 0.00 79 1007.8
20260906014555 84 87 0.0 0.0 0.00 0.00 0.00 78 1007.6
20260906013106 85 87 0.0 0.0 0.00 0.00 0.00 76 1007.5
20260906011602 87 87 0.0 0.0 0.00 0.00 0.00 75 1007.4
20260906010052 88 87 0.0 0.0 0.00 0.00 0.00 74 1007.3
20260906004601 89 87 0.0 0.0 0.00 0.00 0.00 72 1007.2
20260906003057 91 87 0.0 0.0 0.00 0.00 0.00 70 1007.3
20260906001552 92 87 0.0 0.0 0.00 0.00 0.00 69 1007.2
20260906000057 93 87 0.0 0.0 0.00 0.00 0.00 66 1007.3
20260905234550 94 87 0.0 0.0 0.00 0.00 0.00 62 1007.2
20260905233049 94 87 0.0 0.0 0.00 0.00 0.00 60 1007.2
20260905231549 96 87 0.0 0.0 0.00 0.00 0.00 57 1007.0
20260905230053 97 87 0.0 0.0 0.00 0.00 0.00 52 1007.0
20260905224551 97 87 0.0 2.0 0.00 0.00 0.00 52 1007.1
20260905223046 97 87 0.0 5.0 0.00 0.00 0.00 50 1007.1
20260905221546 99 87 1.0 5.0 0.00 0.00 0.00 46 1007.0
20260905220045 99 87 1.0 7.0 0.00 0.00 0.00 45 1007.1
20260905214543 101 42 2.0 4.0 0.00 0.00 0.00 44 1007.3
20260905213041 99 33 1.0 4.0 0.00 0.00 0.00 45 1007.6
20260905211549 99 41 3.0 6.0 0.00 0.00 0.00 47 1007.8
20260905210039 99 70 2.0 5.0 0.00 0.00 0.00 46 1008.1
20260905204538 99 246 3.0 6.0 0.00 0.00 0.00 46 1008.2
20260905203036 99 170 3.0 7.0 0.00 0.00 0.00 46 1008.4
20260905201534 100 328 1.0 4.0 0.00 0.00 0.00 45 1008.5
20260905200038 99 319 1.0 5.0 0.00 0.00 0.00 45 1008.7
20260905194528 99 354 0.0 5.0 0.00 0.00 0.00 47 1009.0
20260905193024 97 59 0.0 4.0 0.00 0.00 0.00 48 1009.1
20260905191526 96 73 2.0 4.0 0.00 0.00 0.00 50 1009.2
20260905190019 95 131 0.0 3.0 0.00 0.00 0.00 53 1009.3
20260905184541 95 131 0.0 3.0 0.00 0.00 0.00 54 1009.4
20260905183036 95 131 2.0 5.0 0.00 0.00 0.00 53 1009.6
20260905181521 95 119 2.0 7.0 0.00 0.00 0.00 55 1009.7
20260905180019 95 120 1.0 5.0 0.00 0.00 0.00 55 1009.9
20260905174512 94 101 1.0 6.0 0.00 0.00 0.00 58 1010.1
20260905173011 94 70 1.0 5.0 0.00 0.00 0.00 59 1010.4
20260905171509 93 66 2.0 4.0 0.00 0.00 0.00 61 1010.4
20260905170005 92 64 2.0 4.0 0.00 0.00 0.00 62 1010.6
20260905164503 91 74 2.0 4.0 0.00 0.00 0.00 63 1010.7
20260905163003 91 81 1.0 3.0 0.00 0.00 0.00 63 1010.6
20260905161559 90 85 1.0 3.0 0.00 0.00 0.00 64 1010.6
20260905160056 90 85 2.0 5.0 0.00 0.00 0.00 64 1010.6
20260905154613 89 104 1.0 3.0 0.00 0.00 0.00 65 1010.4
20260905153050 88 104 0.0 4.0 0.00 0.00 0.00 67 1010.2
20260905151545 86 141 1.0 3.0 0.00 0.00 0.00 69 1010.1
20260905150043 85 122 0.0 4.0 0.00 0.00 0.00 69 1010.2
20260905144541 84 130 0.0 4.0 0.00 0.00 0.00 72 1010.1
20260905143037 83 104 0.0 5.0 0.00 0.00 0.00 73 1010.0
20260905141533 80 230 0.0 2.0 0.00 0.00 0.00 81 1010.1
20260905140030 79 230 0.0 0.0 0.00 0.00 0.00 84 1010.0
20260905134525 78 230 0.0 0.0 0.00 0.00 0.00 86 1010.0
20260905133036 76 230 0.0 0.0 0.00 0.00 0.00 90 1009.8
20260905131520 75 229 0.0 0.0 0.00 0.00 0.00 92 1009.7
20260905130019 74 229 0.0 0.0 0.00 0.00 0.00 93 1009.5
20260905124518 72 229 0.0 0.0 0.00 0.00 0.00 94 1009.4
20260905123015 71 183 0.0 1.0 0.00 0.00 0.00 94 1009.2
20260905121515 71 107 0.0 0.0 0.00 0.00 0.00 93 1009.2
20260905120016 71 107 0.0 3.0 0.00 0.00 0.00 93 1009.0
20260905114511 71 107 0.0 0.0 0.00 0.00 0.00 93 1008.7
20260905113010 71 107 0.0 0.0 0.00 0.00 0.00 93 1008.6
20260905111513 71 107 0.0 0.0 0.00 0.00 0.00 93 1008.5
20260905110028 71 107 0.0 0.0 0.00 0.00 0.00 93 1008.5
20260905104508 71 107 0.0 0.0 0.00 0.00 0.00 92 1008.4
20260905103010 71 107 0.0 0.0 0.00 0.00 0.00 92 1008.4
20260905101506 72 107 0.0 0.0 0.00 0.00 0.00 92 1008.3
20260905100005 72 107 0.0 0.0 0.00 0.00 0.00 92 1008.1
20260905094504 72 107 0.0 0.0 0.00 0.00 0.00 91 1008.3
20260905093003 72 107 0.0 0.0 0.00 0.00 0.00 91 1008.4
20260905091503 72 107 0.0 0.0 0.00 0.00 0.00 91 1008.5
20260905090003 72 107 0.0 0.0 0.00 0.00 0.00 91 1008.4